Regional Weather Roundup
Issued by NWS New Orleans/Baton Rouge, LA

Home | Current Version | Previous Version | Text Only | Print | Product List | Glossary Off
Versions: 1 2 3 4 5 6 7 8 9 10 11 12 13 14 15 16 17 18 19 20 21 22 23 24 25 26 27 28 29 30 31 32 33 34 35 36 37 38 39 40 41 42 43 44 45 46 47 48 49 50

694
ASUS44 KLIX 290710
RWRLIX
NEW ORLEANS REGIONAL WEATHER ROUNDUP
NATIONAL WEATHER SERVICE NEW ORLEANS LA
100 AM CST THU JAN 29 2015

NOTE: "FAIR" INDICATES FEW OR NO CLOUDS BELOW 12,000 FEET WITH NO
      SIGNIFICANT WEATHER AND/OR OBSTRUCTIONS TO VISIBILITY.
      SKY/WX - SKY CONDITION AND SIGNIFICANT WEATHER.
      TMP - AIR TEMPERATURE.     DP    - DEWPOINT TEMPERATURE.
      RH  - RELATIVE HUMIDITY.   PRES  - PRESSURE.
      HI  - HEAT INDEX.          WCI   - WIND CHILL INDEX.

*  THESE STATIONS ARE NOT NWS OR FAA STATIONS AND ARE NOT UNDER
   NWS QUALITY CONTROL.

LAZ038-040-048-061>063-065>067-069-290800-
SOUTHEAST LOUISIANA

CITY           SKY/WX    TMP DP  RH WIND       PRES   REMARKS
N.O. AUDUBON   NOT AVBL
N.O. INTL ARPT PTCLDY    48  44  86 CALM      30.23S
N.O. LAKEFRONT CLEAR     53  46  77 CALM      30.24R
N.O. DOWNTOWN* NOT AVBL
SLIDELL        PTCLDY    41  38  89 CALM      30.23R
BATON ROUGE    CLEAR     44  40  85 E3        30.22S
BOOTHVILLE     PTCLDY    52  48  86 CALM      30.23S
BELLE CHASSE   PTCLDY    43  40  89 CALM      30.23R FOG
BOGALUSA*        N/A     42  38  87 CALM      30.25S
GALLIANO*      PTSUNNY   45  44  97 MISG      30.23S FOG
NEW ROADS*       N/A     46  42  85 CALM      30.22R
GONZALES*        N/A     47  47  99 CALM      30.22S
HAMMOND*       CLEAR     43  39  87 CALM      30.24S
HOUMA*         CLEAR     47  47 100 NW5       30.23R FOG
PORT FOURCHON* SUNNY     63  55  77 SE5       30.25R

$$

MSZ070-080>082-290800-
SOUTHERN MISSISSIPPI

CITY           SKY/WX    TMP DP  RH WIND       PRES   REMARKS
MCCOMB         CLEAR     46  40  79 CALM      30.22S
GULFPORT       CLEAR     43  40  89 CALM      30.23R
BILOXI         PTCLDY    45  45 100 E1        30.23S FOG
PASCAGOULA     PTCLDY    39  38  96 CALM      30.24R FOG

$$

COASTAL OBSERVATIONS
LAKE AND NEARSHORE STATIONS

STATION/POSITION TIME  TEMP    WIND        PRES    WAVE
                       AIR SEA DIR/SP/G            HT/PER
                 (UTC) (F)     (DEG/KT/KT) (MB)    (FT/S)
PASCAGOULA       0700   56     140/  3/  5 1023.2
WAVELAND YACHT   0700   50     360/  1/  2 1022.7
GRAND ISLE       0700   62 64  160/  4/  7 1023.6
SOUTHWEST PASS   0700   58 46  150/  4/  5 1023.5
NEW CANAL        0700   52 54  190/  2/  2 1023.9
SHELL BEACH      0700   54 56  150/  2/  3 1023.6

OFFSHORE STATIONS

STATION/POSITION TIME  TEMP    WIND        PRES    WAVE
                       AIR SEA DIR/SP/G            HT/PER
                 (UTC) (F)     (DEG/KT/KT) (MB)    (FT/S)
64 S DAUPHIN ISL 0556   63 68  110/ 14/ 16 1023.6    2/ 3

$$




USA.gov is the U.S. government's official web portal to all federal, state and local government web resources and services.